www.pogodaiklimat.ru

Погода и климат >> Архив погоды >> Индия >> Чхаттисгарх >> Пендра-роуд


ПОГОДА в Пендра-роуде

  • Прогноз погоды в Пендра-роуде
  • Монитор погоды в Пендра-роуде

АРХИВ ПОГОДЫ в Пендра-роуде

Время (UTC), дата Ветер
(напр.,м/с)
 
Видим.   Явления Облачность Т
(С)
Тd
(С)
f
(%)
Тe
(С)
Тes
(С)
Комфортность P
(гПа)
Po
(гПа)
Тmin
(С)
Tmax
(С)
R
(мм)
R24
(мм)
S
(см)
09 12.08 ЮЗ 1 4000 м 10/5 600 м
[Sc As trans]
+27.8 +23.9 79 +38 +42 очень
душно
999.3 931.8
12 12.08 С 1 4000 м 10/5 600 м
[Sc As trans]
+27.4 +24.0 82 +38 +38 очень
душно
997.5 930.2 +29.1
15 12.08 штиль 0 4000 м 10/4 600 м
[Sc Ac lent Ci sp]
+26.0 +24.3 90 +36 +36 очень
душно
1000.5 932.6
18 12.08 штиль 0 4000 м 9/4 600 м
[Sc Ac lent]
+25.8 +23.5 87 +35 +35 очень
душно
1000.3 932.4
21 12.08 штиль 0 4000 м 10/6 600 м
[Sc As op]
+25.6 +23.6 89 +35 +35 очень
душно
1000.3 931.4
00 13.08 штиль 0 2000 м слаб. дождь 10/6 540 м
[Sc As op]
+24.8 +23.7 94 +34 +34 очень
душно
998.3 930.3 1
03 13.08 СВ 1 4000 м слаб. дождь 10/6 600 м
[Sc As op]
+24.8 +23.9 95 +34 +35 очень
душно
1000.5 932.3 +24.1 5
06 13.08 С 1 4000 м {дождь} 8/4 600 м
[Sc Ac trans]
+26.0 +24.0 89 +36 +45 очень
душно
999.8 931.9 3
09 13.08 С 1 4000 м 10/6 540 м
[Sc As op]
+27.6 +24.2 82 +39 +40 очень
душно
998.4 930.8 3
12 13.08 штиль 0 4000 м 9/5 540 м
[Sc Ac lent]
+27.2 +23.8 82 +37 +38 очень
душно
996.9 929.6 +28.7 3
15 13.08 С 1 4000 м гроза, ливневой дождь 10/5 540 м
[Sc As op]
+26.0 +24.0 89 +36 +36 очень
душно
999.4 931.6 3
18 13.08 штиль 0 2000 м гроза, ливневой дождь 10/6 540 м
[Cb cap As op]
+25.0 +24.1 95 +34 +34 очень
душно
1000.1 931.9 7
21 13.08 штиль 0 2000 м гроза, ливневой дождь 10/6 540 м
[Cb cap As op]
+24.8 +23.9 95 +34 +34 очень
душно
998.2 930.1 10
00 14.08 штиль 0 2000 м дождь {гроза} 10/8 360 м
[Frnb As op]
+23.6 +22.7 95 +31 +31 очень
душно
997.8 929.6 47
03 14.08 штиль 0 4000 м слаб. дождь 10/8 360 м
[Frnb As op]
+23.2 +22.9 98 +32 +33 очень
душно
999.1 930.9 +22.6 73
06 14.08 ЮЗ 1 4000 м дождь 10/8 360 м
[Frnb As op]
+24.2 +23.6 96 +33 +34 очень
душно
999.4 931.3 4
09 14.08 ЮЗ 1 2000 м дождь 10/8 360 м
[Frnb As op]
+24.0 +23.1 95 +32 +33 очень
душно
997.7 930.4 13
12 14.08 ЮЗ 2 4000 м {дождь} 10/6 360 м
[Frnb As op]
+24.0 +23.1 95 +32 +32 очень
душно
998.9 930.6 +24.1 26
15 14.08 Ю 1 4000 м слаб. дождь 10/10 300 м
[Sc diur, vesp Ac und Cs]
+23.6 +23.0 96 +31 +31 очень
душно
1001.3 932.9
18 14.08 ЮВ 1 4000 м {дождь} 10/6 360 м
[Frnb As op]
+23.0 +22.4 96 +31 +31 очень
душно
1002.9 934.1 26
21 14.08 ЮВ 1 4000 м слаб. морось 10/6 360 м
[Frnb As op]
+22.8 +22.2 96 +31 +31 очень
душно
1002.2 933.4 26
00 15.08 ЮВ 1 4000 м слаб. морось 10/6 360 м
[Frnb As op]
+22.8 +22.2 96 +31 +31 очень
душно
1002.5 933.7 27
03 15.08 ЮЗ 1 4000 м в посл. час морось 10/6 360 м
[Frnb As op]
+23.4 +22.8 96 +33 +33 очень
душно
1004.7 936.0 +22.2 27
06 15.08 ЮЗ 2 4000 м 8/5 600 м
[Cu Sc Ac trans]
+27.0 +23.3 80 +36 +44 очень
душно
1004.2 936.2
09 15.08 Ю 2 4000 м 9/5 360 м
[St Ac trans]
+27.2 +23.2 79 +37 +40 очень
душно
1002.0 934.4
12 15.08 ЮЗ 1 4000 м 6/4 600 м
[Sc Ac trans]
+26.2 +23.4 85 +36 +36 очень
душно
1001.7 933.7 +27.4
15 15.08 ЮЗ 1 4000 м 8/4 600 м
[Sc As op]
+25.0 +23.0 89 +33 +33 очень
душно
1004.1 935.7
18 15.08 штиль 0 4000 м 6/3 600 м
[Sc Ac trans]
+24.8 +22.5 87 +32 +32 очень
душно
1004.8 936.3
21 15.08 штиль 0 4000 м 6/3 600 м
[Sc Ac trans]
+24.4 +21.8 85 +31 +31 очень
душно
1003.9 935.4
00 16.08 штиль 0 4000 м 8/4 600 м
[Sc Ac trans]
+24.0 +22.3 90 +31 +31 очень
душно
1003.9 935.2
03 16.08 ЮЗ 2 4000 м 5/4 360 м
[St Ac trans]
+25.6 +23.3 87 +34 +39 очень
душно
1004.8 936.6 +22.8
06 16.08 Ю 1 4000 м 8/6 600 м
[Cu Sc Ac trans]
+29.4 +23.8 72 +40 +47 очень
душно
1003.5 936.2
09 16.08 ЮЗ 1 4000 м 8/6 600 м
[Cu Sc Ci fib]
+30.0 +24.4 72 +42 +48 опасность
перегрева
1002.3 935.0
12 16.08 штиль 0 4000 м 8/6 600 м
[Cu Sc Ci fib]
+29.0 +24.3 76 +41 +41 опасность
перегрева
1000.7 933.3 +30.3
15 16.08 штиль 0 4000 м 5/5 600 м
[Sc]
+27.0 +24.8 88 +39 +39 очень
душно
1003.3 935.3
18 16.08 Ю 1 4000 м 4/4 600 м
[Sc]
+25.6 +23.9 90 +35 +35 очень
душно
1004.2 936.0
21 16.08 штиль 0 4000 м 6/4 600 м
[Sc Ci fib]
+24.4 +22.4 89 +32 +32 очень
душно
1003.7 935.2
00 17.08 штиль 0 4000 м 8/4 600 м
[Sc Ci fib]
+23.6 +21.8 90 +30 +30 очень
душно
1004.3 935.6
03 17.08 штиль 0 4000 м 6/3 600 м
[Sc Ac lent]
+26.2 +22.2 79 +34 +40 очень
душно
1004.5 936.5 +23.6
06 17.08 штиль 0 4000 м 8/4 600 м
[Cu Sc Ci fib]
+29.8 +22.4 65 +39 +54 опасность
солнечного
удара
1004.0 936.7
09 17.08 штиль 0 4000 м 8/4 600 м
[Sc diur, vesp Ac trans]
+30.4 +24.3 70 +42 +49 опасность
перегрева
1001.7 934.8
12 17.08 штиль 0 4000 м 8/4 600 м
[Sc diur, vesp Ac trans]
+29.2 +23.9 73 +40 +41 очень
душно
1001.5 934.3 +31.9
15 17.08 штиль 0 4000 м 6/4 600 м
[Sc Ac trans]
+27.0 +24.5 86 +38 +38 очень
душно
1004.1 936.1
18 17.08 штиль 0 4000 м 6/3 600 м
[Sc Ac trans Ci fib]
+26.0 +24.0 89 +36 +36 очень
душно
1004.3 936.1
21 17.08 штиль 0 4000 м 6/3 600 м
[Sc Ac trans Ci fib]
+25.2 +23.5 90 +34 +34 очень
душно
1003.9 935.7
00 18.08 штиль 0 4000 м 8/5 600 м
[Sc As op]
+24.8 +22.8 89 +33 +33 очень
душно
1004.5 936.0
03 18.08 штиль 0 4000 м 8/4 600 м
[Sc Ac trans]
+26.4 +23.3 83 +36 +40 очень
душно
1006.2 938.0 +23.8
06 18.08 штиль 0 4000 м 10/4 540 м
[Sc As op]
+27.6 +23.9 80 +38 +41 очень
душно
1006.0 938.1
09 18.08 штиль 0 4000 м 10/6 540 м
[Sc As op]
+28.0 +23.8 78 +39 +40 очень
душно
1003.7 935.9
12 18.08 штиль 0 4000 м 10/6 540 м
[Sc As op]
+28.0 +24.4 81 +39 +40 очень
душно
1003.1 935.3 +28.4
15 18.08 штиль 0 4000 м 10/6 540 м
[Sc As op]
+26.4 +24.7 90 +37 +37 очень
душно
1004.5 936.5
18 18.08 штиль 0 4000 м 10/6 540 м
[Sc As op]
+25.2 +23.5 90 +34 +34 очень
душно
1005.1 936.9
21 18.08 штиль 0 4000 м слаб. дождь 10/6 540 м
[Sc As op]
+24.8 +22.5 87 +32 +32 очень
душно
1004.7 936.2 2
00 19.08 штиль 0 4000 м {дождь} 10/6 540 м
[Sc As op]
+23.0 +21.5 91 +31 +31 очень
душно
1004.4 935.4 26
03 19.08 штиль 0 4000 м {дождь} 10/6 540 м
[Sc As op]
+24.0 +23.4 96 +32 +33 очень
душно
1006.4 937.6 +21.3 26
06 19.08 штиль 0 4000 м слаб. морось {дождь} 10/6 360 м
[Frnb As op]
+26.6 +24.1 86 +37 +39 очень
душно
1005.6 937.5 0.0

 

Местоположение метеостанции Пендра-роуд (Чхаттисгарх, Индия): широта 22.77 долгота 81.90 высота над уровнем моря 625 м.

В архиве по умолчанию представлена погода в Пендра-роуде за последнюю неделю. Архивные данные за месяц целиком и за предыдущие месяцы, начиная с января 2011 года, Вы можете получить, выбрав интересующий диапазон дат из раскрывающегося списка и нажав кнопку "Ввод!".


*Определитесь, кто Вы:
робот инопланетянин человек

Внимание! Время в таблицах - всемирное. Для получения местного времени необходимо прибавить поправку, которая равна 5.5 ч.

Смотрите также архив погоды в соседних городах и на ближайших метеорологических станциях:

Погода в Райпур аэропорту (Чхаттисгарх, Индия) (65 км)
Погода в Биласпуре (Чхаттисгарх, Индия) (80 км)
Погода в Умарии (Мадхья-Прадеш, Индия) (134 км)
Погода в Амбикапуре (Чхаттисгарх, Индия) (145 км)
Погода в Малейнджкханде (Мадхья-Прадеш, Индия) (150 км)
Погода в Мандле (Мадхья-Прадеш, Индия) (158 км)
Погода в Райпуре (Чхаттисгарх, Индия) (173 км)
Погода в Сидхи (Мадхья-Прадеш, Индия) (184 км)
Погода в Дурге (Чхаттисгарх, Индия) (188 км)
Погода в Реве (Мадхья-Прадеш, Индия) (205 км)

Пояснения к столбцам:

Ветер - указаны скорость ветра в м/с - средняя за 10 мин, порывы в срок и между сроками (в фигурных скобках) и направление, откуда дует ветер: С - северный, СВ - северо-восточный, В - восточный, ЮВ - юго-восточный, Ю - южный, ЮЗ - юго-западный, З - западный, СЗ - северо-западный.
Видимость - горизонтальная дальность видимости в метрах или километрах. При видимости от 1 до 10 км при отсутствии осадков обычно наблюдается дымка, при ухудшении видимости до 1 км и менее - туман. В сухую погоду видимость может ухудшаться дымом, пылью или мглою.
Явления - указаны атмосферные явления, наблюдавшиеся в срок или в последний час перед сроком; фигурными скобками обозначены явления, наблюдавшиеся между сроками (за 1-3 часа до срока); квадратными скобками обозначены град или гололедные отложения с указанием их диаметра в мм.
Облачность - указаны через наклонную черту общая и нижняя облачность в баллах и высота нижней границы облаков в метрах; квадратными скобками обозначены формы облаков: Ci - перистые, Cs - перисто-слоистые, Cc - перисто-кучевые, Ac - высококучевые, As - высокослоистые, Sc - слоисто-кучевые, Ns - слоисто-дождевые, Cu - кучевые, Cb - кучево-дождевые. Подробнее классификацию облаков см. в Атласе облаков (PDF).
T - Температура воздуха - температура, измеренная на высоте 2 м над землей.
Td - Температура точки росы - температура, при понижении до которой содержащийся в воздухе водяной пар достигнет насыщения.
f - Относительная влажность воздуха - влажноcть воздуха, измеренная на высоте 2 м над землей.
Te - Эффективная температура - температура, которую ощущает одетый по сезону человек в тени. Характеристика душности погоды. При расчете учитывается влияние влажности воздуха и скорости ветра на теплоощущения человека.
Tes - Эффективная температура на солнце - температура, которую ощущает человек, с поправкой на солнечный нагрев. Характеристика знойности погоды. Зависит от высоты солнца над горизонтом, облачности и скорости ветра. Ночью, в пасмурную погоду, а также при ветре 12 м/с и более поправка равна нулю.
P - Атмосферное давление - приведенное к уровню моря атмосферное давление.
Po - Атмосферное давление - измеренное на уровне метеостанции атмосферное давление.
Tmin - Минимальная температура - минимум температуры воздуха на высоте 2 м над землей.
Tmax - Максимальная температура - максимум температуры воздуха на высоте 2 м над землей.
R - Количество осадков - Количество выпавших осадков за период времени, мм. При наведении курсора мыши на число - период времени, за который выпало указанное количество осадков.
R24 - Количество осадков - Количество выпавших осадков за 24 часа, мм.
S - Снежный покров - Высота снежного покрова, см. При наведении курсора мыши на число - состояние снежного покрова и степень покрытия местности в баллах.